Torna al catalogo

STARLINK-37418

AttivoComunicazioniSSO
NORAD 68775·PAYLOAD·🇺🇸 United States

Lanciato Apr 19, 2026 da Vandenberg Space Force Base

Loading…

Prossimi Passaggi (prossime 24 ore)

TLE

AggiornatoSource: CelesTrak SupGP

Epoca: Sep 14, 2026, 23:35 UTC

1 68775C 26086K   26257.98312500  .00062228  00000+0  19321-2 0  2579
2 68775  97.2842 293.4782 0001418  88.7919  93.1074 15.33401618    15

Traccia STARLINK-37418 in tempo reale con AllMySat

Download on the App Store